#timestamp,LO_Frequency,Hit,StdDev 
1621310415.2,286046999.2,N
1621310435.1,286047000.8,N
1621310436.0,286047000.8,N
1621310455.8,286046998.4,N
1621310475.7,286046998.4,N
1621310495.5,286047001.0,N
1621310515.3,286047002.7,N
1621310535.2,286046998.6,N
1621310555.9,286046999.2,N
1621310575.7,286046997.4,N
1621310595.6,286047000.7,N
1621310615.4,286047000.9,N
1621310635.2,286047000.4,N
1621310655.1,286047000.1,N
1621310656.0,286047000.1,N
1621310675.8,286047000.0,N
1621310695.7,286047000.9,N
1621310715.5,286046998.5,N
1621310735.3,286046998.8,N
1621310755.2,286047000.8,N
1621310775.0,286046999.1,N
1621310775.9,286046999.1,N
1621310795.8,286046997.8,N
1621310815.6,286046997.6,N
1621310835.4,286046998.2,N
1621310855.3,286046996.7,N
1621310875.1,286046997.3,N
1621310895.8,286047001.2,N
1621310915.7,286047001.1,N
1621310935.5,286047001.0,N
1621310955.4,286047001.6,N
1621310975.2,286046999.7,N
1621310995.0,286046998.7,N
1621310995.9,286046998.7,N
1621311015.8,286046998.5,N
1621311035.6,286047000.0,N
1621311055.5,286047000.3,N
1621311075.3,286047002.3,N
1621311095.1,286047000.3,N
1621311115.9,286047001.7,N
1621311135.7,286047002.2,N
1621311155.5,286046998.5,N
1621311175.4,286047002.7,N
1621311195.2,286047001.4,N
1621311215.1,286047001.4,N
1621311216.0,286047001.4,N
1621311235.8,286047003.4,N
1621311255.6,286047001.5,N
1621311275.5,286047004.4,N
1621311295.3,286047004.3,N
1621311315.1,286047000.0,N
1621311335.9,286047002.5,N
1621311355.7,286047002.2,N
1621311375.6,286047005.9,N
1621311395.4,286047005.6,N
1621311415.2,286047005.6,N
1621311435.1,286047001.9,N
1621311436.0,286047001.9,N
1621311455.8,286046999.7,N
1621311475.6,286047004.3,N
1621311495.5,286047003.2,N
1621311515.3,286047005.5,N
1621311535.2,286047003.8,N
1621311555.9,286047001.3,N
1621311575.7,286047003.2,N
1621311595.6,286047005.3,N
1621311615.4,286047003.0,N
1621311635.2,286047002.0,N
1621311655.1,286047002.5,N
1621311656.0,286047002.5,N
1621311675.8,286047000.3,N
1621311695.7,286047001.5,N
1621311715.5,286047003.3,N
1621311735.3,286047005.1,N
1621311755.2,286047004.9,N
1621311775.0,286047005.1,N
1621311775.9,286047005.1,N
1621311795.7,286047004.9,N
1621311815.6,286047005.0,N
1621311835.4,286047004.6,N
1621311855.3,286047006.4,Y
1621311875.1,286047000.5,P
1621311895.8,286047001.1,N
1621311915.7,286047001.9,N
1621311935.5,286047000.1,N
1621311955.4,286047000.0,N
1621311975.2,286047002.3,N
1621311995.0,286047002.3,N
1621311995.9,286047002.3,N
1621312015.8,286046999.9,N
1621312035.6,286046999.8,N
1621312055.4,286047000.1,N
1621312075.3,286047002.6,N
1621312095.1,286046998.2,N
1621312115.8,286046999.6,N
1621312135.7,286046997.5,N
1621312155.5,286046995.6,N
1621312175.4,286046995.1,N
1621312195.2,286046999.1,N
1621312215.0,286047000.9,N
1621312215.9,286047000.9,N
1621312235.8,286047000.5,N
1621312255.6,286047002.3,N
1621312275.4,286047001.3,N
1621312295.3,286046999.7,N
1621312315.1,286047001.0,N
1621312335.9,286046998.5,N
1621312355.7,286046999.0,N
1621312375.5,286047002.2,N
1621312395.4,286047003.8,N
1621312415.2,286047001.1,N
1621312435.0,286046999.5,N
1621312436.0,286046999.5,N
1621312455.8,286047000.9,N
1621312475.6,286047000.4,N
1621312495.5,286047000.4,N
1621312515.3,286047002.6,N
1621312535.1,286047003.0,N
1621312555.9,286047005.7,N
1621312575.7,286047003.9,N
1621312595.6,286047003.1,N
1621312615.4,286047005.6,N
1621312635.2,286047003.1,N
1621312655.1,286047003.7,N
1621312656.0,286047003.7,N
1621312675.8,286047003.7,N
1621312695.6,286047006.0,N
1621312715.5,286047004.8,N
1621312735.3,286047005.7,N
1621312755.2,286047006.0,N
1621312775.9,286047003.4,N
1621312795.7,286047004.2,N
1621312815.6,286047000.3,N
1621312835.4,286047002.4,N
1621312855.2,286047001.7,N
1621312875.1,286047004.4,N
1621312876.0,286047004.4,N
1621312895.8,286047003.7,N
1621312915.7,286047003.0,N
1621312935.5,286047001.4,N
1621312955.3,286047004.3,N
1621312975.2,286047002.2,N
1621312995.0,286047002.2,N
1621312995.9,286047002.2,N
1621313015.8,286047002.4,N
1621313035.6,286047000.8,N
1621313055.4,286047001.6,N
1621313075.3,286047002.9,N
1621313095.1,286047002.8,N
1621313115.8,286047001.9,N
1621313135.7,286047002.9,N
1621313155.5,286047005.4,Y
1621313175.4,286047004.4,P
1621313195.2,286047004.3,P
1621313215.5,286047001.7,P
1621313235.4,286046999.9,N
1621313255.2,286047000.8,N
1621313275.0,286047001.7,N
1621313275.9,286047001.7,N
1621313295.8,286047004.4,N
1621313315.6,286047002.5,N
1621313335.4,286047001.4,N
1621313355.3,286047003.8,N
1621313375.1,286047003.8,N
1621313395.9,286047004.4,Y
1621313415.7,286046999.9,P
1621313435.5,286046999.4,N
1621313455.4,286046999.4,N
1621313475.2,286046997.3,N
1621313495.0,286046996.2,N
1621313496.0,286046996.2,N
1621313515.8,286046995.0,N
1621313535.6,286046996.0,N
1621313555.5,286046997.1,N
1621313575.3,286046998.4,N
1621313595.1,286046999.6,N
1621313615.9,286046996.5,N
1621313635.7,286046997.3,N
1621313655.6,286046996.5,N
1621313675.4,286046999.2,N
1621313695.2,286046998.0,N
1621313715.1,286046994.9,N
1621313716.0,286046994.9,N
1621313735.8,286046999.6,N
1621313755.6,286046999.1,N
1621313775.5,286047000.7,N
1621313795.3,286046997.8,N
1621313815.2,286046996.7,N
1621313835.9,286046998.3,N
1621313855.7,286046999.0,N
1621313875.6,286047000.1,N
1621313895.4,286047001.1,N
1621313915.2,286047000.7,N
1621313935.1,286047001.1,N
1621313936.0,286047001.1,N
1621313955.8,286046998.7,N
1621313975.7,286046997.3,N
1621313995.5,286046998.8,N
